Regional Weather Roundup
Issued by NWS

Home | Current Version | Previous Version | Text Only | Print | Product List | Glossary Off
Versions: 1 2 3 4 5 6 7 8 9 10 11 12 13 14 15 16 17 18 19 20 21 22 23 24 25 26 27

000
ASUS45 KBOU 230110
RWRCO

WEATHER ROUNDUP FOR COLORADO
NATIONAL WEATHER SERVICE DENVER/BOULDER CO
600 PM MST MON JAN 22 2018

NOTE: "FAIR" INDICATES FEW OR NO CLOUDS BELOW 12000 FEET WITH NO
SIGNIFICANT WEATHER AND/OR OBSTRUCTIONS TO VISIBILITY.

COZ001>005-013-030-031-230200-
...NORTHWEST COLORADO...

CITY           SKY/WX    TMP DP  RH WIND       PRES   REMARKS
CRAIG          CLOUDY    17   9  70 CALM      30.23S
HAYDEN         FAIR      15   7  70 S3        30.23
MEEKER         CLOUDY    19  13  77 CALM      30.23R
RABBIT EARS PA FAIR       5   3  92 W12G20    30.07S WCI -11
STEAMBOAT SPGS MOCLDY    18   6  61 CALM      30.20S
WALDEN         CLOUDY    18   5  57 S9        30.13S WCI   6
$$

COZ006>008-011-230200-
...WEST CENTRAL VALLEYS...

CITY           SKY/WX    TMP DP  RH WIND       PRES   REMARKS
GRAND JUNCTION CLOUDY    22  18  85 E5        30.28S WCI  16
MONTROSE       FAIR      26  14  60 N6        30.27R WCI  19
EAGLE          MOCLDY    26  12  55 NW6       30.22R WCI  19
RIFLE          CLOUDY    29  18  63 NW3       30.27R
DELTA          MOCLDY    33  14  44 W6        30.26S WCI  28
NUCLA          CLOUDY    32  14  47 CALM      30.28S
$$

COZ017>023-064>068-230200-
...SOUTHWEST COLORADO...

CITY           SKY/WX    TMP DP  RH WIND       PRES   REMARKS
DURANGO        FAIR      17  14  88 E5        30.21R WCI  10
CORTEZ         FAIR      28  14  55 CALM      30.23R
PAGOSA SPRINGS FAIR      15  13  93 CALM      30.20R
TELLURIDE      FAIR      18   7  61 SE9       30.19S WCI   7
WOLF CREEK PAS FAIR      10   5  79 SW9       30.19R WCI  -2
$$

COZ009-010-012-014-032>034-037-058>063-230200-
...CENTRAL COLORADO...

CITY           SKY/WX    TMP DP  RH WIND       PRES   REMARKS
ASPEN          FAIR      17   7  64 CALM      30.16R
BUENA VISTA    FAIR      21  -4  32 N7        30.12R WCI  13
COPPER MTN     NOT AVBL
BERTHOUD PASS  FAIR      -2 -13  60 NW30G37   29.99R WCI -29
COTTONWOOD PAS FAIR      25   5  42 N5        30.10S WCI  19
GUNNISON       FAIR      16   7  67 NW5       30.20R WCI   9
KREMMLING      FAIR      19  10  68 CALM      30.20R
LEADVILLE      FAIR      10   0  63 NE7       30.10R WCI  -1
MONARCH PASS     N/A      5   1  85 W35       30.17F WCI -20
SALIDA         FAIR      27   7  41 SW17G29   30.20R WCI  15
SUNLIGHT       CLOUDY     9   5  85 MISG      30.16S
WILKERSON PASS   N/A     14 -15  26 W9G17     30.09R WCI   2
$$

COZ069>075-230200-
...SAN LUIS VALLEY/SANGRE DE CRISTO MOUNTAINS...

CITY           SKY/WX    TMP DP  RH WIND       PRES   REMARKS
ALAMOSA        FAIR      20   5  52 CALM      30.16S
DEL NORTE      FAIR      19   1  45 NE5       30.17R WCI  13
LA VETA PASS   FAIR      12   3  67 SW21        N/A  WCI  -6
SAGUACHE       FAIR      21   1  42 CALM      30.17R
$$

COZ035-036-038>040-230200-
...NORTHERN COLORADO FRONT RANGE...

CITY           SKY/WX    TMP DP  RH WIND       PRES   REMARKS
DENVER INTL AP FAIR      32   1  26 S6        30.04R WCI  26
DMNS CITY PARK NOT AVBL
AURORA         PTCLDY    30   7  37 S3        30.05R
FRONT RANGE AP PTCLDY    30   7  37 E12       30.05R WCI  21
ERIE MUNI ARPT FAIR      30   9  41 SW7       30.09R WCI  23
BOULDER MUN AP FAIR      36   3  25 S3        30.03R
CENTENNIAL     FAIR      35  -1  21 NW10      30.04R WCI  27
BROOMFIELD     MOCLDY    36   3  25 W24G35    30.04R
FORT COLLINS   FAIR      25  15  66 SE8       30.04R WCI  16
LONGMONT       FAIR      32  15  50 CALM      30.06R
$$

COZ041-046-047-076>085-087-088-230200-
...PIKES PEAK/PALMER DIVIDE AND SOUTHERN FOOTHILLS...

CITY           SKY/WX    TMP DP  RH WIND       PRES   REMARKS
COLO. SPRINGS  FAIR      35   4  27 N6        30.06R WCI  30
A. F. ACADEMY  FAIR      24   4  41 N5        30.05R WCI  18
SCHRIEVER AFB  FAIR      31   2  29 N8        30.06R WCI  23
CHEYENNE MTN   FAIR      33   1  25 SW3       30.01R
ELLICOTT         N/A    N/A N/A N/A NE8       30.05R
FALCON         FAIR      26  -1  31 N6        30.06S WCI  19
FORT CARSON    FAIR      32   4  29 CALM      30.04R
LIMON          FAIR      23  13  65 W10       30.06R WCI  12
MONUMENT HILL  FAIR      14   0  52 NW3       30.07R
CANON CITY     FAIR      34  14  44 W12       30.06R WCI  25
WALSENBURG     NOT AVBL
TRINIDAD       FAIR      35   6  29 NW3       30.09R
$$

COZ042>045-048>051-090-091-230200-
...NORTHEAST COLORADO...

CITY           SKY/WX    TMP DP  RH WIND       PRES   REMARKS
GREELEY ARPT   FAIR      28  16  60 N16       30.04R WCI  16
AKRON          FAIR      26  13  57 NW14      30.04R WCI  14
BURLINGTON     FAIR      15  10  80 W8        30.05R WCI   4
WRAY           FAIR      28  18  64 NW13      30.05R WCI  18
YUMA           FAIR      30  14  51 NW18      30.03R WCI  18
STERLING       FAIR      28  18  64 N13       30.04R WCI  18
HOLYOKE        FAIR      28  18  64 NW7       30.04R WCI  21
FORT MORGAN    FAIR      29  13  52 N16       30.06R WCI  17
$$

COZ086-089-092>099-230200-
...SOUTHEAST COLORADO...

CITY           SKY/WX    TMP DP  RH WIND       PRES   REMARKS
PUEBLO         FAIR      43   5  20 SE8       30.06R
LA JUNTA       FAIR      36   9  32 NE9       30.07R
LAMAR          FAIR      25  17  72 SW7       30.07R WCI  17
SPRINGFIELD      N/A     26  15  63 W3        30.08R
$$




USA.gov is the U.S. government's official web portal to all federal, state and local government web resources and services.